GW2935 Weather Reports


time (UTC)temp
F
wind
direction
speed
knots
gust
knots
rain 1hr
in
rain 24hr
in
rain mn
in
humidity
%
barometer
mb
20260505214549 84 63 1.7 6.1 0.00 0.00 0.00 74 1007.3
20260505213045 84 53 1.7 6.1 0.00 0.00 0.00 76 1007.5
20260505211559 84 123 1.7 7.0 0.00 0.00 0.00 75 1007.5
20260505210045 84 59 0.9 6.1 0.00 0.00 0.00 77 1007.7
20260505204547 84 67 1.7 7.8 0.00 0.00 0.00 76 1008.0
20260505203045 85 267 0.9 4.3 0.00 0.00 0.00 74 1008.2
20260505201552 85 151 1.7 7.0 0.00 0.00 0.00 73 1008.5
20260505200106 84 259 0.9 6.1 0.00 0.00 0.00 75 1008.5
20260505194549 84 293 1.7 7.0 0.00 0.00 0.00 74 1008.7
20260505193100 84 46 0.9 4.3 0.00 0.00 0.00 77 1008.9
20260505191557 82 356 1.7 7.8 0.00 0.00 0.00 78 1009.0
20260505190052 83 301 0.9 5.2 0.00 0.00 0.00 77 1009.0
20260505184559 82 172 0.9 4.3 0.00 0.00 0.00 80 1009.1
20260505183045 81 83 0.9 6.1 0.00 0.00 0.00 80 1009.2
20260505181555 80 266 0.9 6.1 0.00 0.00 0.00 82 1009.2
20260505180051 80 43 0.0 5.2 0.00 0.00 0.00 83 1009.3
20260505174549 80 353 0.0 3.5 0.00 0.00 0.00 82 1009.4
20260505173046 80 0 0.9 5.2 0.00 0.00 0.00 82 1009.6
20260505171546 79 12 0.9 4.3 0.00 0.00 0.00 82 1009.6
20260505170043 79 298 0.9 5.2 0.00 0.00 0.00 84 1009.8
20260505164549 79 223 0.9 6.1 0.00 0.00 0.00 83 1009.8
20260505163045 79 37 0.9 4.3 0.00 0.00 0.00 82 1009.7
20260505161546 79 98 1.7 5.2 0.00 0.00 0.00 82 1009.6
20260505153052 78 0 0.0 3.5 0.00 0.00 0.00 84 1009.4
20260505151552 78 248 0.9 4.3 0.00 0.00 0.00 84 1009.4
20260505124554 74 0 0.9 3.5 0.00 0.00 0.00 89 1009.0
20260505123048 73 140 0.9 2.6 0.00 0.00 0.00 90 1008.9
20260505121548 73 0 0.0 4.3 0.00 0.00 0.00 89 1008.8
20260505120054 73 77 0.9 5.2 0.00 0.00 0.00 89 1008.5
20260505114547 73 300 0.9 3.5 0.00 0.00 0.00 89 1008.8
20260505113055 73 217 0.9 3.5 0.00 0.00 0.00 90 1008.9
20260505111548 73 264 0.9 3.5 0.00 0.00 0.00 90 1008.6
20260505101551 72 0 0.0 1.7 0.00 0.00 0.00 89 1008.7
20260505100046 72 48 0.0 0.9 0.00 0.00 0.00 89 1008.9
20260505094544 72 68 0.0 2.6 0.00 0.00 0.00 89 1008.7
20260505093055 72 203 0.0 1.7 0.00 0.00 0.00 89 1008.7
20260505091549 72 268 0.0 1.7 0.00 0.00 0.00 89 1008.9
20260505090053 72 123 0.0 3.5 0.00 0.00 0.00 89 1009.0
20260505084555 71 0 0.0 3.5 0.00 0.00 0.00 89 1008.9
20260505083058 71 203 0.0 3.5 0.00 0.00 0.00 89 1008.9
20260505081558 71 173 0.0 2.6 0.00 0.00 0.00 88 1009.3
20260505080053 71 0 0.0 5.2 0.00 0.00 0.00 88 1009.4
20260505074552 71 0 0.0 2.6 0.00 0.00 0.00 87 1009.4
20260505073047 71 204 0.0 4.3 0.00 0.00 0.00 87 1009.5
20260505071551 71 264 0.0 2.6 0.00 0.00 0.00 87 1009.6
20260505070051 71 233 0.0 4.3 0.00 0.00 0.00 87 1009.7
20260505064550 71 110 0.0 5.2 0.00 0.00 0.00 86 1009.8
20260505063048 71 71 0.9 4.3 0.00 0.00 0.00 86 1010.2
20260505061543 71 77 0.9 3.5 0.00 0.00 0.00 85 1010.5
20260505060045 71 154 0.9 3.5 0.00 0.00 0.00 85 1010.4
20260505054556 71 275 0.0 4.3 0.00 0.00 0.00 84 1010.3
20260505053047 71 233 0.0 3.5 0.00 0.00 0.00 84 1010.8
20260505051546 71 221 0.9 2.6 0.00 0.00 0.00 83 1010.9
20260505041547 72 86 1.7 4.3 0.00 0.00 0.00 81 1010.7
20260505040052 72 0 0.9 4.3 0.00 0.00 0.00 80 1011.3
20260505034551 73 40 1.7 5.2 0.00 0.00 0.00 79 1011.4
20260505033045 73 33 0.9 7.8 0.00 0.00 0.00 78 1011.4
20260505031557 73 171 0.0 7.0 0.00 0.00 0.00 78 1011.2
20260505030054 74 249 0.9 5.2 0.00 0.00 0.00 78 1011.2
20260505024551 73 72 0.9 3.5 0.00 0.00 0.00 78 1011.3
20260505023047 73 231 0.0 5.2 0.00 0.00 0.00 78 1011.2
20260505021543 74 0 0.9 5.2 0.00 0.00 0.00 77 1011.0
20260505020050 74 302 1.7 6.1 0.00 0.00 0.00 76 1011.0
20260505014603 74 43 0.9 6.1 0.00 0.00 0.00 76 1010.8
20260505013049 74 58 0.9 7.0 0.00 0.00 0.00 75 1010.6
20260505011552 75 77 1.7 6.1 0.00 0.00 0.00 74 1010.6
20260505010043 75 224 1.7 6.1 0.00 0.00 0.00 73 1010.4
20260505004551 76 327 0.9 2.6 0.00 0.00 0.00 72 1010.4
20260505003046 76 59 1.7 5.2 0.00 0.00 0.00 71 1010.4
20260505001550 77 110 0.9 6.1 0.00 0.00 0.00 70 1010.3
20260505000058 78 106 0.9 3.5 0.00 0.00 0.00 69 1010.5
20260504234552 78 252 0.9 6.1 0.00 0.00 0.00 68 1010.6
20260504233046 78 305 0.9 7.0 0.00 0.00 0.00 67 1010.7
20260504231549 79 57 0.9 7.0 0.00 0.00 0.00 66 1010.7
20260504230046 79 118 0.9 7.8 0.00 0.00 0.00 64 1010.8
20260504224546 79 72 0.9 5.2 0.00 0.00 0.00 65 1011.0
20260504223050 80 131 0.9 5.2 0.00 0.00 0.00 64 1011.0
20260504221547 80 150 1.7 5.2 0.00 0.00 0.00 63 1011.4
20260504220048 80 0 0.9 6.1 0.00 0.00 0.00 63 1011.5